This is the latest recevied weather packets stored in our database for station/object OK0EK-11. If no packets are shown the sender has not sent any weather packets the latest 10 day(s).
| Time | Temp. | Humidity | Pressure | Rain* | Wind** | Luminosity | Snow |
|---|---|---|---|---|---|---|---|
| 1787831548 | 21.11° C | 58% | 1021.7 hPa | - | - | - | - |
| 1787830948 | 21.11° C | 57% | 1021.7 hPa | - | - | - | - |
| 1787830348 | 21.11° C | 58% | 1021.7 hPa | - | - | - | - |
| 1787829748 | 21.11° C | 59% | 1021.9 hPa | - | - | - | - |
| 1787829148 | 20.56° C | 60% | 1021.8 hPa | - | - | - | - |
| 1787828547 | 20.56° C | 59% | 1021.7 hPa | - | - | - | - |
| 1787827947 | 20.56° C | 59% | 1021.9 hPa | - | - | - | - |
| 1787827347 | 20.56° C | 61% | 1021.8 hPa | - | - | - | - |
| 1787826747 | 20° C | 61% | 1021.7 hPa | - | - | - | - |
| 1787826147 | 20° C | 62% | 1021.7 hPa | - | - | - | - |
| 1787825547 | 20.56° C | 62% | 1021.7 hPa | - | - | - | - |
| 1787824947 | 21.11° C | 62% | 1021.7 hPa | - | - | - | - |
| 1787824347 | 20° C | 64% | 1021.7 hPa | - | - | - | - |
| 1787823747 | 20° C | 65% | 1021.5 hPa | - | - | - | - |
| 1787823147 | 20° C | 65% | 1021.6 hPa | - | - | - | - |
| 1787822547 | 20.56° C | 63% | 1021.6 hPa | - | - | - | - |
| 1787821948 | 20.56° C | 62% | 1021.6 hPa | - | - | - | - |
| 1787821347 | 19.44° C | 65% | 1021.4 hPa | - | - | - | - |
| 1787820746 | 19.44° C | 63% | 1021.7 hPa | - | - | - | - |
| 1787820146 | 18.89° C | 60% | 1021.8 hPa | - | - | - | - |
| 1787819546 | 18.33° C | 62% | 1021.7 hPa | - | - | - | - |
| 1787818945 | 17.78° C | 69% | 1021.8 hPa | - | - | - | - |
| 1787818344 | 17.78° C | 69% | 1021.7 hPa | - | - | - | - |
| 1787817744 | 17.78° C | 68% | 1021.6 hPa | - | - | - | - |
| 1787817144 | 17.22° C | 68% | 1021.6 hPa | - | - | - | - |
* Rain since midnight (hover to see other rain measurements)
** Current wind speed in m/s (hover to see current wind gust speed)